| time (UTC) | temp C | wind direction | speed KPH | gust KPH | rain 1hr cm | rain 24hr cm | rain mn cm | humidity % | barometer mb |
| 20260508081552 | 20 | 310 | 0.0 | 0.0 | 0.00 | 0.03 | 0.00 | 86 | 1013.4 |
| 20260508080042 | 20 | 72 | 0.0 | 0.0 | 0.00 | 0.03 | 0.00 | 86 | 1013.5 |
| 20260508074539 | 20 | 53 | 0.0 | 6.4 | 0.00 | 0.03 | 0.00 | 86 | 1013.5 |
| 20260508073038 | 20 | 77 | 0.0 | 4.8 | 0.00 | 0.03 | 0.00 | 86 | 1013.5 |
| 20260508071537 | 20 | 81 | 0.0 | 1.6 | 0.00 | 0.03 | 0.00 | 86 | 1013.6 |
| 20260508070107 | 20 | 101 | 0.0 | 1.6 | 0.00 | 0.03 | 0.00 | 86 | 1013.5 |
| 20260508064538 | 20 | 78 | 0.0 | 4.8 | 0.00 | 0.03 | 0.00 | 86 | 1013.4 |
| 20260508063036 | 20 | 87 | 0.0 | 4.8 | 0.00 | 0.03 | 0.00 | 86 | 1013.8 |
| 20260508061537 | 20 | 70 | 0.0 | 0.0 | 0.00 | 0.03 | 0.00 | 86 | 1014.0 |
| 20260508060034 | 20 | 81 | 0.0 | 0.0 | 0.00 | 0.03 | 0.00 | 86 | 1014.2 |
| 20260508054531 | 20 | 81 | 0.0 | 0.0 | 0.00 | 0.03 | 0.00 | 86 | 1013.9 |
| 20260508053029 | 20 | 79 | 0.0 | 4.8 | 0.00 | 0.03 | 0.00 | 86 | 1014.1 |
| 20260508051530 | 20 | 79 | 0.0 | 6.4 | 0.00 | 0.03 | 0.00 | 86 | 1014.3 |
| 20260508050025 | 20 | 77 | 1.6 | 6.4 | 0.00 | 0.03 | 0.03 | 86 | 1014.4 |
| 20260508044526 | 20 | 84 | 3.2 | 8.0 | 0.00 | 0.03 | 0.03 | 86 | 1014.3 |
| 20260508043047 | 20 | 69 | 1.6 | 4.8 | 0.00 | 0.03 | 0.03 | 86 | 1014.5 |
| 20260508041526 | 21 | 84 | 1.6 | 8.0 | 0.00 | 0.03 | 0.03 | 85 | 1014.8 |
| 20260508040124 | 21 | 86 | 1.6 | 9.7 | 0.00 | 0.03 | 0.03 | 85 | 1014.7 |
| 20260508034522 | 21 | 83 | 3.2 | 9.7 | 0.00 | 0.03 | 0.03 | 85 | 1014.7 |
| 20260508033021 | 21 | 79 | 0.0 | 4.8 | 0.00 | 0.03 | 0.03 | 85 | 1014.9 |
| 20260508031523 | 21 | 74 | 1.6 | 8.0 | 0.00 | 0.03 | 0.03 | 84 | 1015.0 |
| 20260508030023 | 22 | 40 | 0.0 | 6.4 | 0.00 | 0.03 | 0.03 | 84 | 1014.9 |
| 20260508024518 | 22 | 90 | 0.0 | 3.2 | 0.00 | 0.03 | 0.03 | 85 | 1014.7 |
| 20260508023020 | 22 | 304 | 0.0 | 3.2 | 0.00 | 0.03 | 0.03 | 85 | 1014.4 |
| 20260508021518 | 22 | 84 | 0.0 | 6.4 | 0.00 | 0.03 | 0.03 | 84 | 1014.2 |
| 20260508020017 | 22 | 96 | 0.0 | 4.8 | 0.00 | 0.03 | 0.03 | 84 | 1013.9 |
| 20260508014516 | 23 | 347 | 0.0 | 3.2 | 0.00 | 0.03 | 0.03 | 84 | 1014.0 |
| 20260508013015 | 23 | 75 | 0.0 | 3.2 | 0.00 | 0.03 | 0.03 | 84 | 1014.1 |
| 20260508011515 | 23 | 88 | 0.0 | 1.6 | 0.00 | 0.03 | 0.03 | 84 | 1013.7 |
| 20260508004514 | 23 | 84 | 0.0 | 1.6 | 0.00 | 0.03 | 0.03 | 83 | 1013.5 |
| 20260508003014 | 23 | 80 | 0.0 | 3.2 | 0.00 | 0.03 | 0.03 | 83 | 1013.0 |
| 20260508001512 | 23 | 83 | 0.0 | 1.6 | 0.00 | 0.03 | 0.03 | 82 | 1013.2 |
| 20260508000011 | 24 | 88 | 0.0 | 3.2 | 0.00 | 0.03 | 0.03 | 82 | 1013.0 |
| 20260507234511 | 24 | 87 | 0.0 | 3.2 | 0.00 | 0.03 | 0.03 | 81 | 1013.2 |
| 20260507233011 | 24 | 311 | 0.0 | 8.0 | 0.00 | 0.03 | 0.03 | 81 | 1013.5 |
| 20260507231515 | 25 | 48 | 0.0 | 0.0 | 0.00 | 0.03 | 0.03 | 81 | 1013.3 |
| 20260507230009 | 25 | 79 | 0.0 | 4.8 | 0.00 | 0.03 | 0.03 | 81 | 1013.3 |
| 20260507224508 | 25 | 88 | 1.6 | 6.4 | 0.00 | 0.03 | 0.03 | 80 | 1013.3 |
| 20260507223008 | 25 | 341 | 0.0 | 3.2 | 0.00 | 0.03 | 0.03 | 80 | 1013.2 |
| 20260507221508 | 25 | 310 | 0.0 | 4.8 | 0.00 | 0.03 | 0.03 | 79 | 1013.2 |
| 20260507220006 | 26 | 104 | 0.0 | 4.8 | 0.00 | 0.03 | 0.03 | 79 | 1013.0 |
| 20260507214505 | 26 | 304 | 0.0 | 3.2 | 0.00 | 0.03 | 0.03 | 79 | 1012.9 |
| 20260507213004 | 26 | 89 | 0.0 | 4.8 | 0.00 | 0.03 | 0.03 | 79 | 1012.8 |
| 20260507211503 | 26 | 129 | 0.0 | 6.4 | 0.00 | 0.03 | 0.03 | 77 | 1012.7 |
| 20260507210002 | 26 | 70 | 3.2 | 8.0 | 0.00 | 0.03 | 0.03 | 78 | 1012.8 |
| 20260507204603 | 25 | 301 | 0.0 | 4.8 | 0.00 | 0.03 | 0.03 | 79 | 1012.9 |
| 20260507203058 | 25 | 86 | 0.0 | 4.8 | 0.00 | 0.03 | 0.03 | 79 | 1013.0 |
| 20260507201604 | 25 | 292 | 0.0 | 4.8 | 0.00 | 0.03 | 0.03 | 79 | 1013.1 |
| 20260507200057 | 25 | 300 | 0.0 | 6.4 | 0.00 | 0.03 | 0.03 | 79 | 1013.3 |
| 20260507194602 | 23 | 75 | 0.0 | 4.8 | 0.00 | 0.03 | 0.03 | 81 | 1013.4 |
| 20260507193055 | 23 | 305 | 0.0 | 4.8 | 0.00 | 0.03 | 0.03 | 81 | 1013.7 |
| 20260507191614 | 23 | 304 | 0.0 | 4.8 | 0.00 | 0.03 | 0.03 | 80 | 1013.7 |
| 20260507190054 | 23 | 89 | 0.0 | 4.8 | 0.00 | 0.03 | 0.03 | 81 | 1013.8 |
| 20260507184601 | 23 | 300 | 0.0 | 9.7 | 0.00 | 0.03 | 0.03 | 81 | 1014.0 |
| 20260507183052 | 23 | 51 | 0.0 | 4.8 | 0.00 | 0.03 | 0.03 | 80 | 1014.0 |
| 20260507181552 | 23 | 84 | 0.0 | 3.2 | 0.00 | 0.03 | 0.03 | 80 | 1013.9 |
| 20260507180051 | 23 | 53 | 1.6 | 8.0 | 0.00 | 0.03 | 0.03 | 81 | 1014.2 |
| 20260507174551 | 23 | 84 | 0.0 | 4.8 | 0.00 | 0.03 | 0.03 | 81 | 1014.4 |
| 20260507173050 | 22 | 85 | 0.0 | 8.0 | 0.00 | 0.03 | 0.03 | 82 | 1014.5 |
| 20260507171551 | 22 | 75 | 0.0 | 4.8 | 0.00 | 0.03 | 0.03 | 83 | 1014.5 |
| 20260507170051 | 21 | 342 | 0.0 | 4.8 | 0.00 | 0.03 | 0.03 | 84 | 1014.5 |
| 20260507164604 | 21 | 319 | 0.0 | 6.4 | 0.00 | 0.03 | 0.03 | 86 | 1014.6 |
| 20260507163047 | 20 | 85 | 0.0 | 8.0 | 0.00 | 0.03 | 0.03 | 88 | 1014.8 |
| 20260507161548 | 20 | 346 | 1.6 | 8.0 | 0.00 | 0.03 | 0.03 | 88 | 1014.9 |
| 20260507160048 | 21 | 310 | 0.0 | 0.0 | 0.00 | 0.03 | 0.03 | 87 | 1014.7 |
| 20260507154543 | 21 | 89 | 0.0 | 3.2 | 0.00 | 0.03 | 0.03 | 88 | 1014.4 |
| 20260507153043 | 20 | 321 | 0.0 | 4.8 | 0.00 | 0.03 | 0.03 | 88 | 1014.5 |
| 20260507151543 | 20 | 316 | 0.0 | 8.0 | 0.00 | 0.03 | 0.03 | 93 | 1014.6 |
| 20260507150041 | 20 | 302 | 1.6 | 9.7 | 0.00 | 0.03 | 0.03 | 94 | 1014.6 |
| 20260507144540 | 20 | 327 | 0.0 | 8.0 | 0.00 | 0.03 | 0.03 | 94 | 1014.6 |
| 20260507143139 | 20 | 325 | 1.6 | 8.0 | 0.00 | 0.03 | 0.03 | 93 | 1014.5 |
| 20260507141553 | 21 | 297 | 0.0 | 3.2 | 0.00 | 0.03 | 0.03 | 94 | 1014.4 |
| 20260507140034 | 21 | 302 | 0.0 | 4.8 | 0.00 | 0.03 | 0.03 | 94 | 1014.3 |
| 20260507134532 | 21 | 302 | 0.0 | 4.8 | 0.00 | 0.03 | 0.03 | 94 | 1014.2 |
| 20260507133033 | 21 | 338 | 0.0 | 4.8 | 0.00 | 0.03 | 0.03 | 94 | 1014.0 |
| 20260507131536 | 21 | 9 | 1.6 | 6.4 | 0.00 | 0.03 | 0.03 | 93 | 1014.0 |
| 20260507130037 | 21 | 314 | 0.0 | 9.7 | 0.00 | 0.03 | 0.03 | 93 | 1013.9 |
| 20260507124520 | 22 | 308 | 1.6 | 9.7 | 0.03 | 0.03 | 0.03 | 93 | 1013.6 |
| 20260507123018 | 22 | 302 | 1.6 | 6.4 | 0.03 | 0.03 | 0.03 | 92 | 1013.3 |
| 20260507121514 | 23 | 293 | 3.2 | 11.3 | 0.03 | 0.03 | 0.03 | 91 | 1013.0 |
| 20260507120008 | 24 | 292 | 0.0 | 8.0 | 0.03 | 0.03 | 0.03 | 89 | 1012.6 |
| 20260507114506 | 25 | 264 | 0.0 | 4.8 | 0.00 | 0.00 | 0.00 | 88 | 1012.4 |
| 20260507113005 | 25 | 256 | 0.0 | 4.8 | 0.00 | 0.00 | 0.00 | 87 | 1012.1 |
| 20260507111503 | 25 | 231 | 1.6 | 6.4 | 0.00 | 0.00 | 0.00 | 87 | 1012.0 |
| 20260507104604 | 25 | 217 | 0.0 | 8.0 | 0.00 | 0.00 | 0.00 | 86 | 1011.5 |
| 20260507103059 | 25 | 245 | 1.6 | 6.4 | 0.00 | 0.00 | 0.00 | 86 | 1011.5 |
| 20260507101602 | 25 | 206 | 1.6 | 6.4 | 0.00 | 0.00 | 0.00 | 86 | 1011.1 |
| 20260507100100 | 25 | 205 | 1.6 | 9.7 | 0.00 | 0.00 | 0.00 | 86 | 1011.2 |
| 20260507094557 | 25 | 229 | 0.0 | 6.4 | 0.00 | 0.00 | 0.00 | 86 | 1011.1 |
| 20260507093055 | 25 | 250 | 1.6 | 8.0 | 0.00 | 0.00 | 0.00 | 86 | 1011.1 |
| 20260507091554 | 25 | 232 | 0.0 | 6.4 | 0.00 | 0.00 | 0.00 | 86 | 1011.0 |
| 20260507090100 | 25 | 212 | 1.6 | 6.4 | 0.00 | 0.00 | 0.00 | 86 | 1011.0 |
| 20260507084555 | 25 | 229 | 0.0 | 6.4 | 0.00 | 0.00 | 0.00 | 86 | 1011.0 |
| 20260507083051 | 25 | 200 | 0.0 | 9.7 | 0.00 | 0.00 | 0.00 | 86 | 1011.1 |